PBO Station Position Time Series. Reference Frame : NAM14
Format Version,1.1.0
4-character ID,TN24
Station name,TDOT_District_24
Begin Date, 2008-01-08
End Date, 2019-10-07
Release Date, 2019-10-08
Reference position, 36.1343673828 North Latitude, -85.4994006777 East Longitude, 308.32707 meters elevation,
Date, North (mm), East (mm), Vertical (mm), North Std. Deviation (mm), East Std. Deviation (mm),              Vertical Std. Deviation (mm), Quality,
2008-01-08,0.00, 0.00, 0.00, 1.94, 1.73, 7.53, repro,
2008-01-09,-0.91, -0.87, 2.95, 1.94, 1.74, 7.57, repro,
2008-01-10,-0.61, -0.95, 6.89, 1.98, 1.73, 7.75, repro,
2008-01-11,-0.54, -0.28, 2.62, 1.93, 1.70, 7.52, repro,
2008-01-12,-0.20, -1.72, -5.62, 1.93, 1.73, 7.57, repro,
2008-01-13,-0.36, -2.04, -2.59, 1.91, 1.69, 7.45, repro,
2008-01-14,-1.49, -1.37, -3.09, 1.93, 1.72, 7.69, repro,
2008-01-15,-0.80, -1.78, -1.37, 1.89, 1.69, 7.43, repro,
2008-01-16,-0.03, -1.58, -7.78, 1.95, 1.74, 7.76, repro,
2008-01-17,-0.64, -2.79, -4.16, 2.00, 1.79, 8.07, repro,
2008-01-18,-0.73, -2.10, 0.35, 1.94, 1.71, 7.64, repro,
2008-01-19,-1.16, -2.12, -7.13, 1.95, 1.75, 7.86, repro,
2008-01-20,-0.80, -3.38, -13.03, 1.93, 1.72, 7.63, repro,
2008-01-21,0.24, -1.99, -14.68, 1.94, 1.74, 7.81, repro,
2008-01-22,-0.44, -3.72, -18.96, 1.95, 1.74, 7.84, repro,
2008-01-23,0.03, -1.97, -10.91, 1.93, 1.70, 7.63, repro,
2008-01-24,-0.48, -1.46, -9.86, 1.92, 1.70, 7.59, repro,
2008-01-26,-1.13, -2.34, -10.07, 1.96, 1.79, 7.95, repro,
2008-01-27,-0.95, -2.91, -8.85, 1.94, 1.72, 7.73, repro,
2008-01-28,-1.21, -1.94, -3.15, 1.91, 1.70, 7.59, repro,
2008-01-29,-0.14, -2.24, 6.42, 2.08, 1.83, 8.61, repro,
2008-01-30,-0.24, -2.67, 1.19, 2.11, 1.91, 8.45, repro,
2008-01-31,-2.01, -3.17, -11.91, 1.97, 1.76, 8.02, repro,
2008-02-01,-2.01, -2.84, -6.21, 1.93, 1.72, 7.66, repro,
2008-02-02,-1.29, -1.84, -11.37, 1.96, 1.73, 7.81, repro,
2008-02-03,0.15, -2.47, -7.78, 1.95, 1.74, 7.67, repro,
2008-02-04,-1.30, 0.22, -6.84, 1.94, 1.71, 7.66, repro,
2008-02-05,0.21, -1.34, -10.20, 2.05, 1.83, 8.27, repro,
2008-02-06,2.46, -2.45, -3.98, 2.02, 1.75, 8.03, repro,
2008-02-07,0.04, -3.36, -1.41, 1.98, 1.72, 7.65, repro,
2008-02-08,0.33, -3.03, -12.34, 1.93, 1.73, 7.72, repro,
2008-02-09,0.90, -2.72, -4.68, 1.92, 1.67, 7.45, repro,
2008-02-10,0.32, -2.88, -15.14, 1.90, 1.67, 7.44, repro,
2008-02-11,-0.50, -2.85, -14.77, 1.90, 1.67, 7.40, repro,
2008-02-12,-0.95, -2.80, -12.94, 1.90, 1.67, 7.40, repro,
2008-02-13,0.26, -4.03, 1.40, 1.90, 1.66, 7.35, repro,
2008-02-14,0.52, -3.21, -12.52, 1.91, 1.67, 7.45, repro,
2008-02-15,-0.05, -2.72, -11.28, 1.96, 1.69, 7.62, repro,
2008-02-16,-0.42, -2.31, -9.62, 1.89, 1.67, 7.35, repro,
2008-02-17,0.69, -1.40, -4.99, 1.92, 1.69, 7.45, repro,
2008-02-18,-0.40, -2.89, -2.25, 1.89, 1.66, 7.30, repro,
2008-02-19,-0.39, -3.92, -7.25, 1.91, 1.67, 7.36, repro,
2008-02-20,-0.99, -3.01, -10.90, 1.90, 1.67, 7.36, repro,
2008-02-21,-0.20, -2.47, -10.28, 1.91, 1.67, 7.44, repro,
2008-02-22,-0.98, -2.08, -15.04, 1.91, 1.68, 7.43, repro,
2008-02-23,-1.24, -3.84, -11.85, 1.89, 1.66, 7.32, repro,
2008-02-24,-0.05, -3.69, -8.29, 1.90, 1.67, 7.36, repro,
2008-02-25,-0.80, -2.69, -10.68, 2.24, 1.99, 8.54, repro,
2008-02-26,-0.55, -1.35, -6.72, 1.91, 1.67, 7.49, repro,
2008-02-27,-2.10, -4.56, -17.82, 1.87, 1.66, 7.33, repro,
2008-02-28,-2.04, -3.74, -21.08, 1.88, 1.69, 7.37, repro,
2008-02-29,-0.40, -2.41, -12.65, 1.86, 1.65, 7.26, repro,
2008-03-01,-0.10, -2.05, -15.45, 1.90, 1.69, 7.42, repro,
2008-03-02,0.81, -1.60, -13.11, 1.94, 1.73, 7.62, repro,
2008-03-03,-0.99, -0.58, -7.86, 1.87, 1.67, 7.33, repro,
2008-03-04,-0.38, -1.67, 4.41, 1.91, 1.71, 7.45, repro,
2008-03-05,-2.40, -1.75, -12.33, 1.99, 1.75, 7.68, repro,
2008-03-06,-0.69, -2.74, -9.93, 1.88, 1.68, 7.33, repro,
2008-03-07,1.30, -2.60, -12.78, 1.86, 1.65, 7.26, repro,
2008-03-08,0.70, -2.84, -12.63, 1.97, 1.74, 7.62, repro,
2008-03-09,-0.80, -3.35, -18.00, 1.90, 1.68, 7.39, repro,
2008-03-10,-0.98, -3.01, -16.06, 1.85, 1.64, 7.20, repro,
2008-03-11,-2.98, -2.98, -13.58, 1.85, 1.66, 7.23, repro,
2008-03-12,-0.19, -1.73, -4.55, 1.92, 1.74, 7.61, repro,
2008-03-13,0.23, -1.30, -0.21, 1.92, 1.70, 7.48, repro,
2008-03-14,-0.44, -1.10, -1.05, 1.94, 1.74, 7.64, repro,
2008-03-15,-0.16, 0.57, -2.66, 1.93, 1.74, 7.64, repro,
2008-03-16,-1.96, -2.90, -5.26, 1.91, 1.73, 7.53, repro,
2008-03-17,0.39, -2.41, -10.64, 1.99, 1.80, 7.76, repro,
2008-03-18,1.29, -0.34, -12.36, 1.96, 1.78, 7.72, repro,
2008-03-19,0.24, -2.23, 2.38, 1.99, 1.82, 7.94, repro,
2008-03-20,-0.10, -3.17, -9.94, 1.91, 1.70, 7.38, repro,
2008-03-21,-0.79, -1.86, -11.06, 1.89, 1.71, 7.32, repro,
2008-03-22,-1.48, -2.38, -6.10, 1.91, 1.73, 7.33, repro,
2008-03-23,-0.02, -2.35, -11.61, 1.90, 1.72, 7.32, repro,
2008-03-24,0.95, -1.79, -8.80, 1.92, 1.74, 7.49, repro,
2008-03-25,-0.83, -2.71, -8.29, 1.95, 1.70, 7.52, repro,
2008-03-26,-0.16, -1.77, -15.17, 1.91, 1.68, 7.36, repro,
2008-03-27,-0.56, -0.64, -1.39, 1.96, 1.75, 7.67, repro,
2008-03-28,1.31, -1.29, -9.50, 1.95, 1.82, 7.58, repro,
2008-03-29,-0.98, -1.68, -8.46, 1.85, 1.69, 7.21, repro,
2008-03-30,-0.36, -1.30, -4.92, 1.87, 1.68, 7.21, repro,
2008-03-31,-1.98, -1.44, -10.35, 1.88, 1.68, 7.29, repro,
2008-04-01,-1.74, -0.90, -7.77, 1.89, 1.70, 7.29, repro,
2008-04-02,-0.87, -4.13, -11.87, 1.88, 1.70, 7.26, repro,
2008-04-03,0.86, -2.40, -8.61, 1.88, 1.67, 7.19, repro,
2008-04-04,-1.62, -2.65, -0.58, 1.86, 1.66, 7.13, repro,
2008-04-05,0.61, -3.21, -6.18, 1.88, 1.67, 7.23, repro,
2008-04-06,0.83, -2.74, -10.67, 1.85, 1.65, 7.09, repro,
2008-04-07,-1.53, -0.42, -15.20, 1.85, 1.67, 7.15, repro,
2008-04-08,0.03, -1.32, -6.68, 1.85, 1.66, 7.10, repro,
2008-04-09,0.01, -1.38, -5.10, 1.85, 1.65, 7.11, repro,
2008-04-10,0.26, -1.71, -7.07, 1.86, 1.66, 7.18, repro,
2008-04-11,-0.53, -0.35, -1.62, 1.90, 1.71, 7.45, repro,
2008-04-12,0.30, -3.23, -6.27, 1.92, 1.70, 7.37, repro,
2008-04-13,-1.31, -2.96, -8.20, 1.85, 1.67, 7.18, repro,
2008-04-14,-0.44, -3.57, -10.70, 1.84, 1.64, 7.07, repro,
2008-04-15,-1.76, -2.74, -4.29, 1.88, 1.68, 7.17, repro,
2008-04-16,0.16, -1.20, -6.32, 1.88, 1.71, 7.28, repro,
2008-04-17,-0.50, -0.92, -5.70, 1.85, 1.65, 7.14, repro,
2008-04-18,-0.33, 0.32, -5.69, 1.86, 1.67, 7.22, repro,
2008-04-19,-0.37, -2.03, -6.11, 1.87, 1.71, 7.23, repro,
2008-04-20,-0.37, -2.92, -6.75, 1.84, 1.65, 7.15, repro,
2008-04-21,0.73, -2.00, -4.64, 1.85, 1.65, 7.19, repro,
2008-04-22,0.64, -1.42, -6.35, 1.86, 1.65, 7.22, repro,
2008-04-23,1.78, -1.49, -12.04, 1.93, 1.71, 7.48, repro,
2008-04-24,-0.21, -0.94, -4.80, 1.89, 1.68, 7.33, repro,
2008-04-25,1.03, 0.17, 2.10, 1.86, 1.65, 7.22, repro,
2008-04-26,-0.16, -0.85, -2.69, 1.89, 1.75, 7.47, repro,
2008-04-27,0.96, -0.76, -6.16, 1.95, 1.74, 7.67, repro,
2008-04-28,-0.08, -1.23, -6.11, 1.88, 1.72, 7.33, repro,
2008-04-29,-0.72, -2.56, -6.79, 1.89, 1.70, 7.44, repro,
2008-04-30,0.24, -0.89, -8.14, 1.88, 1.69, 7.38, repro,
2008-05-01,-0.76, 0.76, 3.66, 1.86, 1.65, 7.23, repro,
2008-05-02,0.31, -0.30, 6.14, 1.87, 1.67, 7.32, repro,
2008-05-03,1.43, 0.92, 5.76, 1.88, 1.69, 7.40, repro,
2008-05-04,0.55, -2.70, -9.90, 1.87, 1.65, 7.20, repro,
2008-05-05,-0.12, -0.93, -5.93, 1.90, 1.69, 7.42, repro,
2008-05-06,-0.52, -1.69, -2.20, 1.89, 1.70, 7.46, repro,
2008-05-07,-0.61, 0.10, -2.00, 1.86, 1.67, 7.30, repro,
2008-05-08,-0.39, 1.28, 7.39, 1.91, 1.68, 7.45, repro,
2008-05-09,-2.58, -1.37, 3.18, 1.88, 1.66, 7.32, repro,
2008-05-10,0.82, 0.12, 7.53, 1.88, 1.66, 7.31, repro,
2008-05-11,-0.48, 0.38, 2.56, 1.93, 1.68, 7.49, repro,
2008-05-12,0.46, -1.26, 2.60, 1.92, 1.67, 7.54, repro,
2008-05-13,0.05, -0.77, -1.04, 1.89, 1.68, 7.41, repro,
2008-05-14,-0.78, -1.58, -9.08, 1.88, 1.69, 7.46, repro,
2008-05-15,-0.75, -0.79, -5.29, 1.91, 1.69, 7.42, repro,
2008-05-16,-1.07, -2.18, -4.11, 1.86, 1.67, 7.31, repro,
2008-05-17,-0.67, -2.08, -2.78, 1.88, 1.67, 7.35, repro,
2008-05-18,1.81, -2.02, 3.85, 2.01, 1.80, 7.98, repro,
2008-05-19,0.29, -0.54, 1.90, 1.87, 1.65, 7.29, repro,
2008-05-20,-0.07, -1.30, 4.12, 1.87, 1.66, 7.30, repro,
2008-05-21,-0.22, -0.82, 9.88, 1.86, 1.65, 7.19, repro,
2008-05-22,0.09, -0.55, 5.13, 1.88, 1.68, 7.43, repro,
2008-05-23,1.00, 0.47, -3.93, 1.90, 1.68, 7.46, repro,
2008-05-24,0.31, 0.76, 0.92, 1.91, 1.70, 7.54, repro,
2008-05-25,0.08, -0.88, 4.20, 1.87, 1.65, 7.30, repro,
2008-05-26,2.34, -0.65, -3.90, 1.90, 1.71, 7.50, repro,
2008-05-27,0.85, -2.13, -5.07, 1.87, 1.67, 7.35, repro,
2008-05-28,1.24, -0.21, -6.67, 1.86, 1.67, 7.32, repro,
2008-05-29,1.74, -1.10, -5.99, 1.90, 1.67, 7.42, repro,
2008-05-30,-0.69, 0.06, -6.72, 1.92, 1.67, 7.50, repro,
2008-05-31,0.39, -0.31, 4.91, 2.00, 1.73, 7.77, repro,
2008-06-01,1.55, -2.11, -6.61, 1.92, 1.69, 7.58, repro,
2008-06-02,-1.29, -0.35, -4.83, 1.90, 1.67, 7.48, repro,
2008-06-03,0.57, -2.11, -3.49, 1.95, 1.71, 7.70, repro,
2008-06-04,2.22, 0.50, 4.14, 1.89, 1.66, 7.35, repro,
2008-06-05,0.25, -0.35, 10.23, 1.87, 1.65, 7.33, repro,
2008-06-06,2.87, 0.39, -3.38, 1.88, 1.69, 7.36, repro,
2008-06-07,3.06, 0.92, 9.65, 2.00, 1.81, 7.93, repro,
2008-06-08,1.32, -3.35, -1.99, 1.89, 1.70, 7.45, repro,
2008-06-09,1.22, -0.36, 6.19, 1.88, 1.68, 7.46, repro,
2008-06-10,0.07, -0.01, -1.61, 1.95, 1.72, 7.70, repro,
2008-06-12,1.48, -0.29, -5.61, 1.89, 1.69, 7.45, repro,
2008-06-13,1.69, -2.91, -11.30, 1.97, 1.71, 7.64, repro,
2008-06-14,0.64, -3.97, -5.96, 1.90, 1.71, 7.54, repro,
2008-06-15,1.12, -1.47, -6.98, 1.93, 1.72, 7.61, repro,
2008-06-16,2.02, -3.12, -3.36, 1.95, 1.71, 7.52, repro,
2008-06-17,0.80, -1.53, 0.91, 1.90, 1.66, 7.39, repro,
2008-06-18,-0.10, -2.84, -4.77, 1.85, 1.65, 7.22, repro,
2008-06-19,-0.22, -2.82, -4.04, 1.87, 1.66, 7.32, repro,
2008-06-20,0.03, -1.73, 0.92, 1.89, 1.67, 7.41, repro,
2008-06-21,1.83, -1.90, -4.20, 1.93, 1.67, 7.57, repro,
2008-06-22,2.96, -1.96, -7.90, 1.94, 1.68, 7.61, repro,
2008-06-23,-0.64, -3.50, 0.78, 1.89, 1.66, 7.30, repro,
2008-06-24,1.18, -4.28, -5.71, 1.93, 1.68, 7.61, repro,
2008-06-25,0.82, -3.13, -9.59, 1.90, 1.67, 7.41, repro,
2008-06-26,-2.03, -1.99, -1.87, 2.01, 1.73, 7.86, repro,
2008-06-27,-0.50, -0.55, -13.47, 2.01, 1.72, 7.86, repro,
2008-06-30,0.25, -1.97, 7.33, 1.89, 1.67, 7.43, repro,
2008-07-01,-1.39, -2.29, -3.76, 1.93, 1.69, 7.46, repro,
2008-07-02,0.43, -0.30, -0.28, 1.92, 1.69, 7.48, repro,
2008-07-03,1.16, -0.75, -6.96, 1.88, 1.66, 7.38, repro,
2008-07-04,-0.48, -4.94, -0.51, 2.03, 1.73, 7.79, repro,
2008-07-06,-0.48, -2.42, 1.49, 1.89, 1.67, 7.41, repro,
2008-07-07,-1.92, 0.00, -1.68, 1.93, 1.71, 7.64, repro,
2008-07-08,-0.69, -0.96, 9.71, 1.89, 1.67, 7.44, repro,
2008-07-09,-2.03, -2.02, 5.68, 1.96, 1.71, 7.59, repro,
2008-07-10,-1.60, -0.95, -2.32, 1.92, 1.70, 7.53, repro,
2008-07-11,-1.56, -1.49, 4.45, 1.94, 1.72, 7.65, repro,
2008-07-12,-1.44, -2.45, 0.81, 2.03, 1.78, 7.93, repro,
2008-07-13,-0.41, -1.18, 7.46, 1.95, 1.68, 7.67, repro,
2008-07-14,0.57, -0.97, 8.91, 1.88, 1.64, 7.27, repro,
2008-07-15,0.54, -3.41, 3.01, 1.86, 1.66, 7.23, repro,
2008-07-16,-0.62, -0.94, -5.39, 1.85, 1.64, 7.25, repro,
2008-07-17,-0.89, -1.51, 5.61, 1.86, 1.66, 7.35, repro,
2008-07-18,-2.62, -2.71, -7.76, 1.92, 1.74, 7.68, repro,
2008-07-19,0.66, -3.99, -4.60, 1.89, 1.68, 7.41, repro,
2008-07-20,0.55, -1.85, 1.05, 1.87, 1.64, 7.29, repro,
2008-07-21,-0.52, -1.28, -1.02, 2.18, 1.84, 8.54, repro,
2008-07-22,0.42, -1.89, -14.28, 2.32, 2.17, 9.25, repro,
2008-07-23,-0.32, -2.95, 2.03, 1.95, 1.71, 7.70, repro,
2008-07-24,-0.90, -2.42, 4.26, 1.89, 1.65, 7.38, repro,
2008-07-25,0.87, -1.95, 5.18, 1.91, 1.68, 7.51, repro,
2008-07-26,0.33, -0.50, 12.72, 1.92, 1.75, 7.69, repro,
2008-07-27,-0.11, -0.38, 3.64, 1.87, 1.65, 7.33, repro,
2008-07-28,3.07, -3.73, -4.66, 1.95, 1.76, 7.86, repro,
2008-07-29,-0.38, 0.02, 4.43, 2.01, 1.80, 7.75, repro,
2008-07-30,-0.05, -0.65, 8.44, 2.45, 2.11, 9.21, repro,
2008-07-31,2.05, -0.68, 17.48, 1.91, 1.70, 7.58, repro,
2008-08-01,-0.92, -2.06, 7.72, 1.88, 1.65, 7.35, repro,
2008-08-02,-2.47, -2.97, 5.80, 1.95, 1.72, 7.60, repro,
2008-08-03,-0.92, 0.42, 4.89, 1.98, 1.69, 7.79, repro,
2008-08-04,-0.48, -0.58, 5.34, 1.87, 1.65, 7.34, repro,
2008-08-05,0.77, -2.01, 4.40, 1.87, 1.67, 7.38, repro,
2008-08-06,0.94, -0.84, 9.65, 1.90, 1.69, 7.54, repro,
2008-08-07,-2.56, 1.39, 10.33, 2.04, 1.79, 8.12, repro,
2008-08-08,0.57, -2.57, 3.50, 1.90, 1.69, 7.50, repro,
2008-08-09,-0.50, -1.32, 1.41, 1.83, 1.61, 7.17, repro,
2008-08-10,-0.32, -0.61, 5.59, 1.84, 1.64, 7.25, repro,
2008-08-11,-0.16, -1.11, 5.45, 1.85, 1.64, 7.24, repro,
2008-08-12,-1.53, -0.92, 11.11, 1.88, 1.65, 7.35, repro,
2008-08-13,-1.39, -3.04, 1.32, 1.88, 1.69, 7.53, repro,
2008-08-14,1.08, -2.42, 1.36, 1.85, 1.63, 7.27, repro,
2008-08-15,0.47, -2.81, -1.42, 1.87, 1.66, 7.38, repro,
2008-08-16,1.00, -0.55, 6.46, 1.87, 1.66, 7.38, repro,
2008-08-17,-0.37, -1.48, 5.00, 1.90, 1.67, 7.36, repro,
2008-08-18,-0.50, -1.92, 1.80, 1.87, 1.66, 7.39, repro,
2008-08-19,-0.07, -3.07, 4.71, 1.90, 1.67, 7.38, repro,
2008-08-20,-0.02, -1.64, 0.19, 1.88, 1.66, 7.38, repro,
2008-08-21,-0.29, -0.89, 6.19, 1.84, 1.64, 7.24, repro,
2008-08-22,0.77, -1.62, 11.39, 1.86, 1.63, 7.25, repro,
2008-08-23,0.21, -1.66, 2.44, 1.88, 1.65, 7.39, repro,
2008-08-24,0.27, -2.38, 10.02, 1.91, 1.66, 7.48, repro,
2008-08-25,-0.81, -1.19, 0.91, 1.89, 1.67, 7.45, repro,
2008-08-26,-0.80, -1.12, 8.46, 1.86, 1.65, 7.30, repro,
2008-08-27,-1.71, -2.01, 6.60, 1.93, 1.69, 7.55, repro,
2008-08-28,-1.03, -0.08, 6.46, 1.95, 1.74, 7.62, repro,
2008-08-29,-0.65, -2.03, 6.23, 1.89, 1.68, 7.47, repro,
2008-08-30,-0.02, -0.64, 3.37, 2.00, 1.71, 7.81, repro,
2008-08-31,-0.74, -1.34, 0.84, 1.90, 1.68, 7.52, repro,
2008-09-01,-0.77, 0.42, 12.06, 1.92, 1.70, 7.54, repro,
2008-09-02,-1.01, 1.61, 2.85, 1.92, 1.68, 7.51, repro,
2008-09-03,0.35, 0.02, 4.36, 1.87, 1.65, 7.34, repro,
2008-09-04,-0.71, 0.12, 7.27, 2.05, 1.76, 7.79, repro,
2008-09-05,-4.12, 0.82, 11.12, 1.94, 1.71, 7.68, repro,
2008-09-06,-0.67, -0.92, 2.46, 1.87, 1.66, 7.33, repro,
2008-09-07,-1.33, -1.67, 4.75, 1.90, 1.68, 7.45, repro,
2008-09-08,-0.48, -0.33, -4.04, 1.90, 1.67, 7.40, repro,
2008-09-09,-1.92, -1.50, 3.66, 1.88, 1.67, 7.41, repro,
2008-09-10,-2.22, -0.71, 0.51, 1.97, 1.78, 7.85, repro,
2008-09-11,-0.90, -0.92, 3.01, 1.89, 1.68, 7.42, repro,
2008-09-12,-2.20, 0.22, 2.34, 2.01, 1.73, 7.75, repro,
2008-09-13,-2.64, -0.26, 7.08, 1.93, 1.71, 7.60, repro,
2008-09-14,-3.74, 0.89, 17.36, 1.93, 1.70, 7.55, repro,
2008-09-15,-2.07, -0.03, -0.46, 1.94, 1.73, 7.70, repro,
2008-09-16,-0.86, -2.32, 2.15, 1.99, 1.73, 7.87, repro,
2008-09-17,-0.69, -3.07, -2.91, 1.97, 1.72, 7.74, repro,
2008-09-18,1.01, -2.35, -7.78, 1.83, 1.64, 7.21, repro,
2008-09-19,-1.23, -2.60, 2.77, 1.86, 1.66, 7.31, repro,
2008-09-20,-3.35, -1.67, 0.93, 1.86, 1.66, 7.32, repro,
2008-09-21,-1.20, -2.16, 1.01, 1.85, 1.66, 7.25, repro,
2008-09-22,-0.86, -1.40, 3.46, 1.90, 1.69, 7.43, repro,
2008-09-23,-1.76, -2.78, -0.57, 1.89, 1.69, 7.54, repro,
2008-09-24,0.33, -1.96, 0.91, 1.98, 1.75, 7.68, repro,
2008-09-25,-0.98, -2.31, 5.09, 1.84, 1.64, 7.21, repro,
2008-09-26,-0.06, -3.85, 6.89, 1.86, 1.65, 7.30, repro,
2008-09-27,-1.47, -1.37, 8.92, 1.89, 1.68, 7.37, repro,
2008-09-28,-0.77, -1.94, 3.10, 1.85, 1.66, 7.29, repro,
2008-09-29,-0.97, -3.25, 1.00, 1.89, 1.69, 7.42, repro,
2008-09-30,0.64, -2.33, 2.39, 1.85, 1.65, 7.26, repro,
2008-10-01,-0.80, -4.02, 5.42, 1.85, 1.65, 7.23, repro,
2008-10-02,-3.06, -3.41, 10.48, 2.08, 1.96, 8.33, repro,
2008-10-03,-1.75, -2.89, 2.32, 1.97, 1.73, 7.56, repro,
2008-10-04,-0.73, -2.48, -4.78, 1.85, 1.65, 7.27, repro,
2008-10-05,-0.91, -1.67, -7.42, 1.85, 1.63, 7.22, repro,
2008-10-06,-0.29, -1.52, 1.36, 1.86, 1.65, 7.29, repro,
2008-10-07,-1.62, -2.03, 0.93, 1.86, 1.67, 7.33, repro,
2008-10-08,-0.37, -2.62, 8.64, 1.91, 1.69, 7.41, repro,
2008-10-09,-1.33, -1.94, 5.25, 1.84, 1.64, 7.21, repro,
2008-10-10,-2.16, -2.10, -1.41, 1.85, 1.64, 7.21, repro,
2008-10-11,2.14, -2.15, -6.45, 1.86, 1.64, 7.27, repro,
2008-10-12,-0.63, -2.02, -2.27, 1.85, 1.64, 7.25, repro,
2008-10-13,-0.36, -2.27, -4.48, 1.84, 1.63, 7.16, repro,
2008-10-14,-0.99, -1.37, -2.03, 1.84, 1.64, 7.25, repro,
2008-10-15,-2.18, -2.72, -1.82, 1.89, 1.66, 7.34, repro,
2008-10-16,-1.20, -2.52, -5.88, 1.89, 1.67, 7.39, repro,
2008-10-17,0.51, -2.00, -3.93, 1.85, 1.65, 7.26, repro,
2008-10-20,-0.99, -3.55, -1.86, 1.82, 1.62, 7.10, repro,
2008-10-21,-1.21, -4.04, -9.19, 1.84, 1.64, 7.22, repro,
2008-10-22,-0.55, -2.78, -4.22, 1.95, 1.68, 7.61, repro,
2008-10-23,-0.08, -2.42, -7.56, 1.88, 1.69, 7.37, repro,
2008-10-24,-2.01, -3.51, -0.63, 1.88, 1.68, 7.36, repro,
2008-10-25,-1.52, -2.49, 0.03, 1.85, 1.65, 7.23, repro,
2008-10-26,-2.36, -3.30, 4.83, 1.85, 1.66, 7.29, repro,
2008-10-27,-1.05, -4.28, -5.87, 1.85, 1.66, 7.30, repro,
2008-10-28,-0.20, -2.89, -10.70, 1.88, 1.72, 7.44, repro,
2008-10-29,-0.75, -4.53, -2.38, 1.88, 1.72, 7.45, repro,
2008-10-30,-0.96, -3.88, -9.79, 1.84, 1.65, 7.20, repro,
2008-10-31,-1.39, -3.24, -6.58, 1.84, 1.66, 7.26, repro,
2008-11-01,-0.85, -2.85, -7.16, 1.86, 1.68, 7.31, repro,
2008-11-02,0.48, -1.97, -3.95, 1.89, 1.69, 7.36, repro,
2008-11-03,-0.33, -2.02, -0.38, 1.93, 1.76, 7.53, repro,
2008-11-04,-0.34, -2.80, -1.47, 1.86, 1.69, 7.28, repro,
2008-11-05,-0.34, -3.12, 4.53, 1.87, 1.69, 7.34, repro,
2008-11-06,-0.36, -2.69, 1.97, 1.84, 1.66, 7.28, repro,
2008-11-07,0.26, -1.92, 6.43, 1.92, 1.73, 7.59, repro,
2008-11-08,0.09, -1.72, 1.83, 1.87, 1.67, 7.30, repro,
2008-11-09,-1.90, -2.82, 3.92, 1.84, 1.66, 7.24, repro,
2008-11-10,-1.16, -3.68, -3.43, 1.89, 1.71, 7.44, repro,
2008-11-11,-1.04, -3.25, 0.53, 1.86, 1.67, 7.31, repro,
2008-11-12,0.21, -1.68, -2.28, 1.86, 1.66, 7.30, repro,
2008-11-13,1.72, -1.32, 1.91, 1.89, 1.70, 7.41, repro,
2008-11-14,-0.97, 0.13, 6.06, 1.93, 1.72, 7.60, repro,
2008-11-15,-1.21, -3.93, 0.31, 1.89, 1.71, 7.44, repro,
2008-11-16,-1.88, -2.98, 1.33, 1.90, 1.68, 7.41, repro,
2008-11-17,-0.78, -3.23, 0.22, 1.94, 1.76, 7.67, repro,
2008-11-18,-0.06, -3.19, -11.29, 1.85, 1.66, 7.26, repro,
2008-11-19,-1.59, -2.53, -9.77, 1.85, 1.65, 7.23, repro,
2008-11-20,-1.51, -3.50, -11.73, 1.90, 1.70, 7.52, repro,
2008-11-21,-0.31, -5.11, -16.76, 1.93, 1.72, 7.65, repro,
2008-11-22,-2.46, -3.16, -15.12, 1.85, 1.65, 7.26, repro,
2008-11-23,-0.21, -2.92, -13.88, 1.87, 1.70, 7.46, repro,
2008-11-24,-1.85, -4.41, -12.36, 1.90, 1.75, 7.60, repro,
2008-11-25,-2.49, -4.40, -7.12, 1.87, 1.70, 7.32, repro,
2008-11-26,-1.35, -3.28, -6.15, 1.83, 1.67, 7.26, repro,
2008-11-27,-0.83, -2.21, -2.18, 1.86, 1.66, 7.26, repro,
2008-11-28,-0.33, -2.77, -2.34, 1.88, 1.70, 7.42, repro,
2008-11-29,-0.21, -3.15, 1.38, 1.88, 1.71, 7.43, repro,
2008-11-30,-2.20, -1.36, 10.72, 1.83, 1.66, 7.21, repro,
2008-12-01,-1.75, -2.05, 5.10, 1.83, 1.66, 7.22, repro,
2008-12-02,-0.68, -1.89, -3.22, 1.89, 1.72, 7.49, repro,
2008-12-03,-1.50, -2.37, -3.72, 1.90, 1.71, 7.49, repro,
2008-12-04,-1.70, -2.59, -10.02, 1.92, 1.73, 7.67, repro,
2008-12-05,-2.28, -3.90, -15.41, 1.87, 1.70, 7.38, repro,
2008-12-06,-3.19, -3.57, -0.04, 1.88, 1.73, 7.49, repro,
2008-12-07,-3.68, -1.10, -3.00, 1.89, 1.67, 7.47, repro,
2008-12-08,-1.52, -1.35, -4.07, 1.86, 1.67, 7.40, repro,
2008-12-09,-2.17, -2.84, -4.37, 1.90, 1.69, 7.50, repro,
2008-12-10,-0.70, -2.51, -1.66, 1.85, 1.66, 7.24, repro,
2008-12-11,-2.24, -3.51, -2.75, 1.95, 1.76, 7.58, repro,
2008-12-12,-7.87, 1.97, 3.72, 2.14, 2.03, 8.61, repro,
2008-12-13,-2.91, -2.16, -3.50, 1.85, 1.65, 7.29, repro,
2008-12-14,-1.71, -1.51, -5.15, 1.86, 1.64, 7.34, repro,
2008-12-15,0.00, -3.02, -8.80, 1.87, 1.65, 7.36, repro,
2008-12-16,-1.42, -3.05, -4.06, 1.85, 1.65, 7.25, repro,
2008-12-17,-1.74, -3.35, -2.39, 1.86, 1.67, 7.35, repro,
2008-12-18,0.06, -3.94, -11.45, 1.85, 1.67, 7.33, repro,
2008-12-19,-1.60, -0.42, -5.43, 1.97, 1.76, 7.77, repro,
2008-12-20,-1.13, -1.97, -2.51, 1.91, 1.68, 7.52, repro,
2008-12-21,-1.18, -3.19, -7.22, 1.87, 1.67, 7.33, repro,
2008-12-22,-2.84, -4.10, -10.82, 1.88, 1.73, 7.50, repro,
2008-12-23,-3.23, -3.40, -11.28, 1.87, 1.68, 7.39, repro,
2008-12-24,-0.98, -4.24, -3.62, 1.89, 1.69, 7.51, repro,
2008-12-25,-1.30, -2.74, -4.03, 1.88, 1.65, 7.39, repro,
2008-12-26,-0.24, -1.26, -7.11, 1.85, 1.64, 7.29, repro,
2008-12-27,-1.01, -0.79, -7.29, 1.89, 1.66, 7.50, repro,
2008-12-29,-2.29, -3.66, -6.61, 1.87, 1.66, 7.36, repro,
2008-12-30,-1.35, -3.64, -6.67, 1.91, 1.69, 7.57, repro,
2008-12-31,-1.05, -4.16, -2.17, 1.87, 1.65, 7.38, repro,
2009-01-01,-0.33, -3.38, -5.92, 1.88, 1.71, 7.65, repro,
2009-01-02,-1.57, -3.64, -0.68, 1.89, 1.72, 7.59, repro,
2009-01-03,-2.82, -3.31, 0.33, 1.88, 1.69, 7.42, repro,
2009-01-04,-1.56, -3.76, -7.44, 1.93, 1.77, 7.87, repro,
2009-01-05,-0.72, -3.18, 5.50, 1.87, 1.64, 7.48, repro,
2009-01-06,-0.03, -3.42, 2.02, 1.90, 1.75, 7.79, repro,
2009-01-07,-2.31, -3.86, 12.91, 1.88, 1.70, 7.53, repro,
2009-01-08,-3.15, -3.54, 3.60, 1.89, 1.68, 7.42, repro,
2009-01-09,-2.36, -3.56, -5.12, 1.95, 1.75, 7.72, repro,
2009-01-10,-0.64, -3.25, -8.13, 1.88, 1.68, 7.46, repro,
2009-01-11,-1.64, -4.16, -1.27, 1.89, 1.72, 7.62, repro,
2009-01-12,-1.97, -4.22, -10.52, 1.90, 1.78, 7.82, repro,
2009-01-13,-2.57, -3.67, -6.29, 1.91, 1.77, 7.84, repro,
2009-01-14,-1.36, -3.87, -15.42, 1.91, 1.78, 7.83, repro,
2009-01-15,-0.86, -4.43, -17.65, 1.88, 1.69, 7.54, repro,
2009-01-16,-0.85, -5.62, -20.94, 1.86, 1.68, 7.47, repro,
2009-01-17,-1.57, -3.70, -12.31, 1.92, 1.75, 7.76, repro,
2009-01-18,-2.33, -2.87, -6.04, 1.92, 1.76, 7.74, repro,
2009-01-19,-1.14, -2.98, -6.96, 1.92, 1.78, 7.88, repro,
2009-01-20,-1.12, -5.29, -11.22, 1.90, 1.73, 7.60, repro,
2009-01-21,-1.17, -4.47, -9.34, 2.17, 2.00, 8.71, repro,
2009-01-22,-2.65, -4.02, -6.18, 2.59, 2.37, 10.58, repro,
2009-01-25,-0.02, -3.03, -22.84, 2.34, 2.20, 9.56, repro,
2009-01-26,-1.85, -5.00, -11.51, 3.10, 2.70, 11.97, repro,
2009-01-28,-0.77, -2.41, -8.41, 1.86, 1.67, 7.40, repro,
2009-01-29,-0.52, -4.84, -14.81, 1.89, 1.68, 7.46, repro,
2009-01-30,-1.42, -4.46, -14.50, 1.84, 1.63, 7.23, repro,
2009-01-31,-0.71, -3.21, -16.90, 1.83, 1.63, 7.19, repro,
2009-02-01,-0.81, -3.67, -8.38, 1.84, 1.62, 7.22, repro,
2009-02-02,-0.38, -3.60, -10.10, 1.86, 1.64, 7.31, repro,
2009-02-03,-1.36, -3.64, -12.94, 1.86, 1.64, 7.32, repro,
2009-02-04,-0.29, -4.69, -20.61, 1.85, 1.65, 7.28, repro,
2009-02-05,-0.36, -4.12, -28.16, 1.89, 1.66, 7.49, repro,
2009-02-06,-0.45, -2.40, -15.01, 1.88, 1.66, 7.42, repro,
2009-02-07,0.15, -2.79, -14.00, 1.86, 1.62, 7.19, repro,
2009-02-08,1.29, -1.31, -11.69, 1.85, 1.63, 7.20, repro,
2009-02-09,0.65, -0.48, -11.56, 1.85, 1.63, 7.20, repro,
2009-02-10,0.36, -0.95, -8.24, 1.86, 1.64, 7.27, repro,
2009-02-11,-1.23, -2.08, -2.26, 1.96, 1.78, 7.82, repro,
2009-02-12,-0.66, -2.31, -8.10, 1.94, 1.67, 7.43, repro,
2009-02-13,0.45, -2.76, -7.24, 1.87, 1.64, 7.33, repro,
2009-02-14,0.68, -3.04, -7.38, 1.90, 1.66, 7.43, repro,
2009-02-15,-1.00, -2.56, -9.55, 1.88, 1.65, 7.27, repro,
2009-02-16,0.41, -2.59, -14.34, 1.87, 1.65, 7.27, repro,
2009-02-17,-0.33, -3.19, -14.99, 1.86, 1.65, 7.32, repro,
2009-02-18,-0.27, -3.25, -11.17, 2.04, 1.81, 7.97, repro,
2009-02-19,0.70, -1.97, -8.17, 1.92, 1.66, 7.33, repro,
2009-02-20,-1.23, -3.00, -7.25, 1.90, 1.66, 7.30, repro,
2009-02-21,-0.48, -2.84, -13.20, 1.91, 1.73, 7.47, repro,
2009-02-22,-0.09, -1.50, -21.78, 1.88, 1.65, 7.25, repro,
2009-02-23,-0.00, -3.12, -24.25, 1.93, 1.71, 7.47, repro,
2009-02-24,-0.27, -2.71, -14.59, 1.94, 1.71, 7.52, repro,
2009-02-25,-0.26, 0.34, -10.88, 11.90, 23.95, 182.11, repro,
2009-02-26,0.15, -1.95, -15.22, 1.98, 1.78, 7.68, repro,
2009-02-27,-0.23, -1.49, -11.07, 2.17, 1.85, 8.37, repro,
2009-02-28,-0.26, -1.30, -15.85, 1.89, 1.65, 7.29, repro,
2009-03-01,-0.84, -3.53, -16.32, 2.00, 1.75, 7.59, repro,
2009-03-02,-1.16, -2.74, -10.96, 1.95, 1.75, 7.64, repro,
2009-03-03,-0.81, -2.80, -14.52, 1.97, 1.78, 7.76, repro,
2009-03-04,-0.15, -1.23, -7.05, 1.91, 1.68, 7.40, repro,
2009-03-05,0.05, -1.50, -16.16, 1.96, 1.75, 7.63, repro,
2009-03-06,0.20, -1.39, -15.43, 2.12, 1.80, 8.10, repro,
2009-03-07,-1.27, -0.87, -4.05, 1.92, 1.69, 7.42, repro,
2009-03-08,0.66, -1.51, -5.06, 1.99, 1.72, 7.71, repro,
2009-03-09,-0.66, -2.91, -14.68, 2.09, 1.80, 7.89, repro,